Regional Weather Roundup
Issued by NWS

Home | Current Version | Previous Version | Text Only | Print | Product List | Glossary Off
Versions: 1 2 3 4 5 6 7 8 9 10 11 12 13 14 15 16 17 18 19 20 21 22 23 24 25 26 27 28 29 30 31 32 33 34 35 36 37 38 39 40 41 42 43 44 45 46 47 48 49 50

000
ASUS43 KBIS 262110
RWRND

NORTH DAKOTA REGIONAL WEATHER ROUNDUP
NATIONAL WEATHER SERVICE BISMARCK ND
400 PM CDT WED APR 26 2017

NOTE: "FAIR" INDICATES FEW OR NO CLOUDS BELOW 12,000 FEET WITH NO
SIGNIFICANT WEATHER AND/OR OBSTRUCTIONS TO VISIBILITY.


NDZ001>003-009>011-017-262200-
NORTHWEST NORTH DAKOTA

CITY           SKY/WX    TMP DP  RH WIND       PRES   REMARKS
WILLISTON      FAIR      50  23  34 SE7       29.81F
MINOT          FAIR      49  22  34 NE16G25   29.79F
MINOT AFB      SUNNY     48  22  36 NE16      29.79F
$$

NDZ018>021-031>035-040>046-262200-
SOUTHWEST NORTH DAKOTA

CITY           SKY/WX    TMP DP  RH WIND       PRES   REMARKS
BISMARCK       PTSUNNY   46  27  47 N15G22    29.77F
DICKINSON      FAIR      45  21  38 N6        29.75F
GARRISON         N/A     46  23  40 NE12G22   29.77F
HETTINGER ARPT SUNNY     47  25  42 N9G20     29.76F
$$

NDZ004>008-012>016-024-026-027-054-262200-
NORTHEAST NORTH DAKOTA

CITY           SKY/WX    TMP DP  RH WIND       PRES   REMARKS
GRAND FORKS    SNOW      31  29  92 N16       29.79R VSB 1/2 WCI  20
GRND FRKS AFB  LGT SNOW  30  27  87 NE16      29.79S FOG     WCI  19
DEVILS LAKE    CLOUDY    35  27  72 NE17G26   29.79F
$$

NDZ022-023-025-028>030-036>039-047>053-262200-
SOUTHEAST NORTH DAKOTA

CITY           SKY/WX    TMP DP  RH WIND       PRES   REMARKS
FARGO          LGT SNOW  29  28  96 N17       29.74S VSB 3/4 WCI  17
JAMESTOWN      CLOUDY    31  25  78 N16       29.76S WCI  20
$$





USA.gov is the U.S. government's official web portal to all federal, state and local government web resources and services.